QPF
0.02 0.03 0.02 0.01 0.00 0.00 0.00 0.00 0.00 0.00 0.00 0.00 0.00 0.00 0.00 0.00 0.00 0.00 0.00 0.00 0.00 0.00 0.00 0.00 0.00 0.00 0.00 0.00 0.00 0.00 0.00 0.00 0.00 0.00 0.00 0.00 0.00 0.00 0.00 0.00 0.00 0.00 0.00 0.00 0.00
0.00 0.02 0.03 0.02 0.01 0.01 0.00 0.00 0.00 0.00 0.00 0.00 0.00 0.00 0.00 0.00 0.00 0.00 0.00 0.00 0.00 0.00 0.00 0.00 0.00 0.00 0.00 0.00 0.00 0.00 0.00 0.00 0.00 0.00 0.00 0.00 0.00 0.00 0.00 0.00 0.00 0.00 0.00 0.00 0.00
0.00 0.00 0.01 0.02 0.02 0.01 0.01 0.00 0.00 0.00 0.00 0.00 0.00 0.00 0.00 0.00 0.00 0.00 0.00 0.00 0.00 0.00 0.00 0.00 0.00 0.00 0.00 0.00 0.00 0.00 0.00 0.00 0.00 0.00 0.00 0.00 0.00 0.00 0.00 0.00 0.00 0.00 0.00 0.00 0.00
0.00 0.00 0.00 0.01 0.02 0.01 0.02 0.01 0.00 0.00 0.00 0.00 0.00 0.00 0.01 0.01 0.00 0.00 0.00 0.00 0.00 0.00 0.00 0.00 0.00 0.00 0.00 0.00 0.00 0.00 0.00 0.00 0.00 0.00 0.00 0.00 0.00 0.00 0.00 0.00 0.00 0.00 0.00 0.00 0.00
0.00 0.00 0.00 0.00 0.01 0.01 0.02 0.01 0.00 0.00 0.00 0.00 0.00 0.00 0.02 0.01 0.00 0.00 0.00 0.00 0.00 0.00 0.00 0.00 0.00 0.00 0.00 0.00 0.00 0.00 0.00 0.00 0.00 0.00 0.00 0.00 0.00 0.00 0.00 0.00 0.00 0.00 0.00 0.00 0.00
0.00 0.00 0.01 0.01 0.00 0.01 0.02 0.01 0.01 0.00 0.00 0.00 0.00 0.01 0.01 0.00 0.00 0.00 0.01 0.00 0.00 0.00 0.00 0.00 0.00 0.00 0.00 0.00 0.00 0.00 0.00 0.00 0.00 0.00 0.00 0.00 0.00 0.00 0.00 0.00 0.00 0.00 0.00 0.00 0.00
0.00 0.00 0.00 0.01 0.01 0.01 0.02 0.02 0.03 0.00 0.00 0.00 0.00 0.01 0.00 0.00 0.00 0.00 0.01 0.00 0.00 0.00 0.00 0.00 0.00 0.00 0.00 0.00 0.00 0.00 0.00 0.00 0.00 0.00 0.00 0.00 0.00 0.00 0.00 0.00 0.00 0.00 0.00 0.00 0.00
0.00 0.00 0.00 0.01 0.01 0.01 0.02 0.04 0.05 0.01 0.00 0.01 0.00 0.01 0.00 0.00 0.00 0.00 0.00 0.01 0.03 0.01 0.00 0.00 0.00 0.00 0.00 0.00 0.00 0.00 0.00 0.00 0.00 0.00 0.00 0.00 0.00 0.00 0.00 0.00 0.00 0.00 0.00 0.00 0.00
0.01 0.00 0.00 0.01 0.01 0.01 0.02 0.05 0.09 0.05 0.03 0.02 0.00 0.00 0.00 0.00 0.00 0.00 0.00 0.01 0.02 0.04 0.02 0.01 0.01 0.01 0.00 0.00 0.00 0.00 0.00 0.00 0.00 0.00 0.00 0.00 0.00 0.00 0.00 0.00 0.00 0.00 0.00 0.00 0.00
0.01 0.01 0.01 0.01 0.01 0.01 0.03 0.06 0.10 0.09 0.03 0.01 0.01 0.01 0.00 0.00 0.00 0.00 0.00 0.01 0.00 0.00 0.03 0.04 0.02 0.01 0.00 0.01 0.00 0.00 0.00 0.00 0.00 0.00 0.00 0.00 0.00 0.00 0.00 0.00 0.00 0.00 0.00 0.00 0.00
0.01 0.00 0.01 0.01 0.02 0.03 0.05 0.10 0.09 0.04 0.01 0.00 0.00 0.00 0.00 0.00 0.00 0.00 0.00 0.04 0.02 0.02 0.01 0.03 0.01 0.00 0.00 0.00 0.00 0.00 0.00 0.00 0.00 0.00 0.00 0.00 0.00 0.00 0.00 0.00 0.00 0.00 0.00 0.00 0.00
0.02 0.01 0.01 0.02 0.03 0.04 0.05 0.03 0.01 0.00 0.01 0.00 0.00 0.00 0.00 0.00 0.00 0.00 0.01 0.02 0.01 0.01 0.01 0.02 0.01 0.00 0.00 0.00 0.00 0.00 0.00 0.00 0.00 0.00 0.00 0.00 0.00 0.00 0.00 0.00 0.00 0.00 0.00 0.00 0.00
0.04 0.03 0.02 0.03 0.09 0.06 0.01 0.01 0.03 0.00 0.00 0.00 0.00 0.00 0.00 0.00 0.00 0.00 0.00 0.01 0.00 0.01 0.01 0.00 0.00 0.00 0.00 0.00 0.01 0.01 0.01 0.00 0.00 0.00 0.00 0.00 0.00 0.00 0.00 0.00 0.00 0.00 0.00 0.00 0.00
0.05 0.03 0.04 0.07 0.08 0.01 0.00 0.02 0.06 0.02 0.03 0.01 0.00 0.00 0.00 0.00 0.00 0.00 0.00 0.02 0.01 0.00 0.01 0.01 0.00 0.00 0.01 0.01 0.01 0.00 0.00 0.01 0.01 0.01 0.00 0.00 0.00 0.00 0.00 0.00 0.00 0.00 0.00 0.00 0.00
0.05 0.05 0.06 0.06 0.01 0.00 0.00 0.02 0.09 0.05 0.05 0.01 0.00 0.00 0.00 0.00 0.00 0.00 0.00 0.02 0.00 0.00 0.01 0.00 0.00 0.00 0.00 0.00 0.00 0.00 0.00 0.00 0.02 0.02 0.02 0.00 0.01 0.00 0.00 0.00 0.00 0.00 0.00 0.00 0.00
0.04 0.05 0.05 0.05 0.00 0.00 0.00 0.05 0.14 0.08 0.02 0.01 0.00 0.00 0.00 0.00 0.00 0.00 0.01 0.04 0.02 0.03 0.01 0.00 0.00 0.00 0.00 0.00 0.00 0.00 0.01 0.01 0.03 0.04 0.03 0.00 0.00 0.00 0.00 0.00 0.00 0.00 0.00 0.00 0.00
0.03 0.04 0.05 0.02 0.00 0.00 0.04 0.09 0.10 0.05 0.00 0.01 0.00 0.00 0.00 0.00 0.00 0.00 0.01 0.01 0.01 0.03 0.01 0.00 0.00 0.00 0.00 0.00 0.00 0.01 0.02 0.02 0.02 0.02 0.01 0.00 0.00 0.00 0.00 0.00 0.00 0.00 0.00 0.00 0.00
0.04 0.04 0.05 0.01 0.00 0.01 0.03 0.03 0.03 0.00 0.00 0.00 0.00 0.00 0.00 0.00 0.00 0.00 0.01 0.00 0.00 0.00 0.00 0.00 0.00 0.00 0.00 0.00 0.00 0.00 0.01 0.01 0.00 0.00 0.00 0.00 0.01 0.00 0.00 0.00 0.00 0.00 0.00 0.00 0.00
0.07 0.07 0.05 0.01 0.00 0.04 0.02 0.01 0.00 0.00 0.00 0.00 0.01 0.01 0.01 0.01 0.00 0.00 0.00 0.00 0.00 0.00 0.00 0.00 0.00 0.00 0.00 0.00 0.00 0.00 0.02 0.01 0.05 0.01 0.01 0.00 0.00 0.00 0.00 0.00 0.00 0.00 0.00 0.00 0.00
0.07 0.06 0.04 0.01 0.01 0.04 0.02 0.01 0.00 0.00 0.00 0.00 0.01 0.01 0.00 0.00 0.00 0.00 0.01 0.00 0.00 0.00 0.00 0.00 0.00 0.00 0.00 0.00 0.00 0.00 0.00 0.02 0.05 0.02 0.01 0.00 0.00 0.00 0.00 0.00 0.00 0.00 0.00 0.00 0.00
0.03 0.02 0.02 0.01 0.01 0.01 0.01 0.01 0.00 0.00 0.01 0.01 0.01 0.00 0.00 0.00 0.00 0.00 0.00 0.00 0.00 0.00 0.00 0.00 0.00 0.00 0.00 0.00 0.00 0.00 0.01 0.00 0.01 0.01 0.01 0.00 0.00 0.00 0.00 0.00 0.00 0.00 0.00 0.00 0.00
0.00 0.01 0.01 0.01 0.00 0.00 0.00 0.01 0.00 0.00 0.01 0.03 0.01 0.00 0.00 0.00 0.00 0.00 0.00 0.00 0.00 0.00 0.00 0.00 0.00 0.00 0.00 0.00 0.00 0.00 0.00 0.00 0.01 0.00 0.00 0.00 0.00 0.00 0.00 0.00 0.00 0.00 0.00 0.00 0.00
0.00 0.01 0.02 0.01 0.00 0.00 0.00 0.00 0.00 0.00 0.00 0.01 0.00 0.00 0.00 0.00 0.00 0.00 0.00 0.00 0.00 0.00 0.00 0.00 0.00 0.00 0.00 0.00 0.00 0.00 0.00 0.00 0.00 0.01 0.00 0.00 0.00 0.00 0.00 0.00 0.00 0.00 0.00 0.00 0.00
0.00 0.01 0.03 0.01 0.00 0.00 0.00 0.00 0.00 0.00 0.00 0.01 0.00 0.00 0.00 0.00 0.00 0.00 0.00 0.00 0.00 0.00 0.00 0.00 0.00 0.00 0.00 0.00 0.00 0.00 0.00 0.00 0.01 0.00 0.00 0.00 0.00 0.00 0.00 0.00 0.00 0.00 0.00 0.00 0.00
0.00 0.00 0.01 0.01 0.00 0.00 0.00 0.00 0.00 0.00 0.00 0.01 0.01 0.00 0.00 0.00 0.00 0.00 0.00 0.00 0.00 0.00 0.00 0.00 0.00 0.00 0.00 0.00 0.00 0.00 0.00 0.00 0.00 0.00 0.01 0.00 0.00 0.00 0.00 0.00 0.00 0.00 0.00 0.00 0.00
0.00 0.00 0.00 0.00 0.00 0.00 0.00 0.00 0.00 0.00 0.00 0.00 0.00 0.00 0.00 0.00 0.00 0.00 0.00 0.00 0.00 0.00 0.00 0.00 0.00 0.00 0.00 0.00 0.00 0.00 0.00 0.00 0.00 0.00 0.00 0.00 0.00 0.00 0.00 0.00 0.00 0.00 0.00 0.00 0.00
0.00 0.00 0.00 0.00 0.00 0.00 0.00 0.00 0.00 0.00 0.00 0.00 0.00 0.00 0.00 0.00 0.00 0.00 0.00 0.00 0.00 0.00 0.00 0.00 0.00 0.00 0.00 0.00 0.00 0.00 0.00 0.00 0.00 0.00 0.00 0.00 0.00 0.00 0.00 0.00 0.00 0.00 0.00 0.00 0.00
MSLP
1016.40 1016.76 1017.18 1017.63 1018.04 1018.35 1018.58 1018.90 1019.22 1019.46 1019.56 1019.68 1019.70 1019.77 1019.74 1019.66 1019.97 1019.91 1019.66 1018.99 1018.86 1018.64 1018.35 1018.10 1017.98 1018.01 1017.72 1017.96 1018.00 1018.32 1019.59 1019.67 1019.12 1018.56 1018.22 1017.34 1017.25 1016.95 1016.88 1016.99 1017.17 1017.31 1017.72 1017.97 1017.99
1015.99 1016.39 1016.73 1017.17 1017.54 1017.96 1018.21 1018.52 1018.85 1019.16 1019.37 1019.55 1019.61 1019.72 1019.80 1019.83 1019.94 1019.40 1018.87 1018.74 1018.76 1018.60 1018.50 1018.63 1018.72 1018.59 1018.62 1018.60 1018.66 1018.92 1019.76 1019.33 1018.53 1018.39 1018.21 1017.77 1017.72 1017.51 1017.34 1017.27 1017.51 1017.73 1018.18 1018.22 1018.28
1015.50 1015.77 1016.36 1016.65 1016.98 1017.47 1017.92 1018.14 1018.48 1018.81 1019.18 1019.45 1019.58 1019.65 1019.76 1019.92 1019.93 1018.61 1018.26 1018.56 1018.54 1018.61 1018.56 1018.72 1018.87 1019.07 1019.28 1019.16 1019.09 1019.13 1019.30 1018.90 1018.20 1018.19 1018.08 1018.06 1017.85 1017.70 1017.72 1017.67 1017.59 1017.92 1018.21 1018.67 1018.83
1015.04 1015.65 1015.86 1016.18 1016.45 1016.97 1017.52 1017.80 1018.15 1018.50 1018.95 1019.28 1019.46 1019.55 1019.62 1019.89 1019.46 1017.65 1017.59 1017.66 1018.02 1018.61 1018.74 1018.88 1019.23 1019.54 1019.67 1019.60 1019.20 1019.37 1018.98 1018.74 1018.27 1018.18 1018.17 1018.19 1018.03 1017.93 1017.84 1017.62 1017.55 1017.72 1017.80 1018.55 1018.77
1014.59 1015.10 1015.35 1015.80 1016.02 1016.53 1017.02 1017.50 1017.78 1018.23 1018.67 1018.99 1019.23 1019.36 1019.65 1019.52 1018.34 1017.64 1017.11 1017.61 1018.46 1018.83 1019.07 1019.35 1019.60 1019.72 1019.84 1019.72 1019.52 1019.49 1019.27 1018.88 1018.46 1018.28 1018.28 1018.12 1018.19 1018.26 1017.86 1017.44 1017.31 1017.52 1017.76 1018.14 1018.32
1013.89 1014.49 1014.92 1015.22 1015.76 1016.16 1016.46 1017.18 1017.48 1017.86 1018.32 1018.81 1018.95 1019.26 1019.54 1018.78 1017.71 1017.88 1018.03 1018.22 1018.54 1018.96 1019.22 1019.46 1019.55 1019.60 1019.93 1019.86 1019.91 1019.70 1019.58 1019.24 1018.84 1018.52 1018.43 1018.22 1018.08 1018.14 1017.68 1017.44 1017.56 1017.49 1017.71 1017.87 1017.81
1013.16 1013.66 1014.22 1014.88 1015.40 1015.72 1015.98 1016.73 1017.15 1017.65 1017.94 1018.48 1018.84 1019.30 1019.06 1018.14 1017.84 1018.03 1018.13 1018.45 1018.57 1018.80 1019.25 1019.50 1019.55 1019.77 1019.95 1020.06 1020.03 1020.01 1020.07 1019.71 1019.27 1018.82 1018.64 1018.49 1018.29 1017.88 1017.44 1017.44 1017.51 1017.62 1017.42 1017.39 1017.34
1012.54 1013.14 1013.37 1014.31 1015.07 1015.37 1015.80 1016.22 1016.85 1017.32 1017.69 1018.20 1018.74 1019.29 1018.64 1017.87 1017.78 1018.27 1018.16 1018.55 1018.68 1018.92 1019.09 1019.37 1019.49 1019.94 1020.16 1020.51 1020.56 1020.61 1020.60 1020.37 1019.55 1019.09 1018.80 1018.94 1017.68 1017.78 1017.69 1017.66 1017.48 1017.42 1017.39 1016.96 1016.49
1012.14 1012.66 1013.00 1013.86 1014.59 1015.16 1015.48 1015.85 1016.45 1017.05 1017.69 1018.28 1019.00 1019.21 1018.54 1017.64 1017.93 1017.90 1018.34 1018.59 1019.03 1019.33 1019.37 1019.41 1019.68 1019.98 1020.48 1020.62 1021.07 1020.93 1020.78 1020.88 1020.26 1019.52 1019.41 1019.24 1017.93 1018.00 1017.86 1017.86 1017.49 1017.14 1016.98 1016.71 1016.24
1011.59 1012.16 1012.61 1013.44 1014.18 1014.70 1015.07 1015.66 1016.25 1017.23 1018.00 1018.50 1018.93 1019.60 1018.52 1017.74 1017.55 1017.64 1017.87 1018.46 1019.19 1019.74 1019.90 1019.90 1020.12 1020.17 1020.49 1020.52 1020.22 1020.82 1021.11 1020.96 1020.59 1020.10 1019.80 1019.64 1018.12 1018.52 1018.25 1018.07 1017.67 1017.08 1016.54 1016.23 1015.88
1011.04 1011.67 1012.41 1013.06 1013.44 1014.06 1014.98 1015.96 1016.84 1017.29 1017.33 1017.25 1017.59 1017.38 1016.84 1017.12 1017.11 1017.46 1017.64 1018.56 1019.35 1020.11 1020.26 1020.45 1020.40 1019.79 1020.09 1020.45 1020.63 1020.83 1020.78 1020.72 1020.55 1020.21 1019.97 1019.77 1018.77 1018.79 1018.54 1018.04 1017.51 1016.86 1016.36 1015.78 1015.04
1010.43 1011.12 1011.80 1012.41 1012.94 1013.62 1014.51 1014.64 1014.26 1014.66 1016.57 1017.14 1017.37 1017.34 1017.09 1016.94 1017.41 1017.47 1017.48 1018.57 1019.35 1019.93 1020.36 1020.84 1019.67 1020.12 1020.18 1020.43 1020.65 1020.64 1020.83 1020.42 1020.77 1020.46 1020.37 1020.14 1018.75 1018.11 1018.16 1017.42 1016.79 1016.28 1015.63 1014.91 1014.28
1009.79 1010.33 1011.08 1011.80 1012.41 1013.56 1013.92 1014.04 1014.22 1014.18 1016.19 1016.85 1017.31 1017.33 1017.23 1017.27 1017.14 1017.17 1017.45 1018.19 1018.95 1019.83 1019.97 1019.98 1019.45 1019.72 1020.14 1020.59 1020.86 1020.91 1020.77 1020.72 1021.00 1020.75 1020.50 1020.53 1019.13 1017.74 1016.74 1016.39 1015.86 1015.20 1014.77 1014.21 1013.68
1009.36 1009.65 1010.33 1011.18 1013.03 1012.91 1013.46 1014.13 1014.60 1014.76 1015.52 1016.22 1016.53 1016.43 1016.94 1017.35 1017.09 1016.74 1017.06 1017.79 1018.99 1019.31 1019.98 1020.17 1019.51 1019.49 1020.06 1020.26 1020.56 1020.78 1020.52 1020.82 1021.12 1021.38 1020.95 1020.45 1018.87 1017.45 1016.79 1016.03 1015.27 1014.31 1014.00 1013.33 1012.61
1008.93 1008.62 1009.45 1010.50 1011.48 1012.11 1012.70 1013.77 1014.65 1015.35 1014.97 1014.97 1015.38 1015.39 1015.85 1016.68 1016.33 1016.56 1016.57 1017.89 1018.44 1018.98 1019.81 1018.98 1019.17 1019.45 1019.63 1019.30 1020.18 1019.90 1020.38 1020.73 1021.02 1021.30 1021.42 1020.54 1019.89 1016.84 1016.69 1015.57 1014.80 1013.69 1013.32 1012.50 1012.04
1007.98 1007.70 1008.54 1010.27 1011.05 1011.78 1012.61 1013.61 1015.01 1015.85 1013.60 1014.33 1014.06 1014.70 1015.84 1015.91 1016.32 1016.77 1017.03 1017.72 1018.45 1019.18 1019.36 1018.96 1018.89 1018.99 1018.71 1019.38 1019.70 1020.00 1020.61 1021.04 1021.31 1021.63 1020.96 1018.99 1019.79 1017.62 1016.14 1014.61 1013.55 1013.25 1012.78 1012.10 1011.73
1005.50 1006.59 1008.12 1009.47 1010.27 1011.22 1012.37 1013.67 1014.08 1012.42 1013.18 1013.70 1013.31 1013.94 1014.52 1015.20 1016.31 1016.41 1016.92 1017.55 1017.91 1019.10 1019.07 1019.18 1018.89 1018.75 1018.61 1019.33 1019.79 1020.17 1021.00 1021.54 1021.58 1021.48 1019.95 1019.14 1019.21 1016.87 1014.67 1014.13 1013.83 1013.13 1012.69 1012.13 1012.05
1004.84 1006.22 1007.71 1009.03 1010.06 1010.89 1012.02 1013.03 1012.16 1011.99 1012.77 1013.18 1013.08 1013.71 1013.98 1014.60 1015.77 1015.98 1016.47 1016.98 1017.44 1017.56 1018.15 1018.56 1018.70 1018.39 1018.20 1018.11 1018.78 1019.58 1020.23 1020.66 1020.65 1021.02 1020.34 1019.51 1018.16 1015.74 1014.33 1013.26 1013.20 1012.78 1013.09 1012.72 1011.87
1005.63 1006.37 1007.46 1008.86 1009.83 1010.48 1011.39 1011.06 1010.57 1011.20 1012.05 1012.37 1013.04 1013.47 1013.90 1014.28 1014.57 1015.50 1015.67 1015.77 1016.15 1016.66 1017.36 1018.09 1018.02 1017.26 1017.27 1017.73 1018.01 1019.08 1019.54 1019.20 1020.50 1020.65 1020.88 1019.25 1017.48 1015.48 1014.14 1013.35 1012.91 1013.58 1013.27 1012.84 1012.31
1005.05 1006.20 1007.00 1008.32 1009.55 1010.32 1010.82 1010.71 1011.02 1010.88 1011.17 1011.79 1012.02 1012.40 1012.98 1013.55 1014.19 1014.89 1015.29 1014.97 1015.54 1015.90 1016.66 1017.14 1017.59 1016.86 1017.02 1017.41 1017.22 1017.35 1018.28 1019.65 1020.45 1020.61 1020.25 1018.79 1017.53 1015.43 1013.77 1013.75 1013.89 1014.07 1013.63 1013.13 1012.63
1005.66 1006.04 1006.90 1008.00 1009.49 1009.69 1009.61 1010.54 1010.71 1010.31 1010.56 1011.13 1011.69 1012.03 1012.38 1012.64 1013.31 1013.78 1013.89 1014.21 1014.53 1015.32 1016.43 1016.79 1017.01 1017.41 1017.30 1016.71 1016.42 1017.46 1017.77 1018.31 1019.04 1019.76 1019.47 1018.58 1016.41 1013.94 1013.19 1013.70 1014.06 1014.08 1013.87 1013.50 1013.22
1005.96 1006.66 1006.57 1007.91 1009.11 1009.31 1009.32 1010.16 1010.58 1010.31 1010.67 1011.06 1011.18 1011.38 1011.48 1011.72 1012.70 1013.39 1013.21 1012.93 1013.26 1014.46 1015.43 1016.14 1016.62 1017.41 1017.10 1016.44 1016.09 1016.43 1016.50 1017.52 1018.46 1018.89 1018.96 1017.77 1015.12 1013.36 1013.49 1013.84 1013.95 1013.93 1013.82 1013.80 1013.80
1005.62 1006.46 1007.09 1007.57 1008.34 1008.74 1009.33 1010.23 1010.36 1010.65 1010.62 1011.36 1011.22 1010.98 1010.97 1011.44 1012.61 1012.67 1012.88 1012.90 1013.01 1013.73 1013.85 1014.82 1015.86 1017.29 1017.28 1016.97 1016.47 1016.26 1016.32 1016.68 1017.43 1018.10 1017.64 1017.59 1014.36 1013.91 1013.95 1014.23 1014.20 1014.09 1014.01 1013.98 1013.97
1006.01 1007.01 1007.19 1007.97 1008.58 1008.46 1009.03 1010.20 1010.77 1010.70 1010.71 1010.88 1011.28 1011.05 1011.18 1011.49 1011.42 1011.75 1012.29 1012.56 1012.78 1013.18 1013.52 1014.11 1015.06 1015.63 1015.84 1015.83 1015.96 1016.32 1016.05 1016.19 1016.86 1017.44 1016.12 1016.49 1014.89 1012.43 1014.58 1014.82 1014.94 1014.82 1014.66 1015.58 1016.03
1005.46 1006.96 1006.63 1007.68 1008.37 1008.61 1008.89 1009.63 1010.07 1010.71 1010.68 1010.97 1011.53 1011.19 1010.95 1011.08 1011.20 1011.24 1011.75 1012.38 1012.60 1012.89 1013.44 1013.94 1014.85 1015.89 1016.20 1016.22 1016.16 1015.89 1015.85 1016.00 1016.29 1015.94 1016.63 1015.94 1015.62 1012.82 1015.40 1015.85 1015.98 1016.38 1016.58 1016.73 1016.98
1005.72 1006.82 1007.41 1007.44 1008.18 1008.97 1009.18 1009.74 1009.83 1010.04 1010.12 1010.72 1010.72 1010.31 1010.37 1009.81 1009.39 1009.53 1010.50 1011.01 1011.29 1012.50 1013.09 1013.90 1015.16 1016.17 1016.87 1016.82 1016.77 1016.39 1015.97 1015.96 1016.20 1016.37 1016.51 1016.70 1014.86 1015.81 1016.57 1016.98 1017.49 1018.01 1018.20 1018.29 1018.31
1005.81 1006.11 1006.26 1007.30 1008.16 1008.96 1008.56 1008.92 1008.90 1009.17 1009.80 1009.51 1009.28 1010.02 1010.08 1008.84 1009.07 1009.29 1010.10 1010.19 1010.39 1010.84 1011.94 1013.90 1015.45 1016.90 1017.96 1017.69 1017.46 1016.73 1015.17 1015.55 1015.89 1015.95 1016.29 1016.47 1015.58 1017.16 1018.03 1018.46 1019.18 1019.65 1019.88 1019.96 1019.80
Thickness
5580 5584 5585 5587 5589 5593 5596 5600 5603 5607 5612 5616 5622 5627 5632 5637 5639 5644 5646 5659 5664 5668 5674 5679 5682 5685 5692 5689 5694 5692 5664 5662 5676 5680 5680 5703 5702 5711 5716 5712 5713 5717 5718 5718 5722
5571 5575 5577 5579 5582 5585 5589 5592 5596 5600 5604 5608 5613 5618 5623 5628 5631 5638 5651 5653 5658 5661 5665 5664 5663 5672 5670 5675 5676 5668 5654 5667 5684 5683 5681 5691 5695 5699 5703 5704 5704 5709 5711 5714 5716
5563 5567 5568 5571 5575 5577 5580 5585 5588 5592 5595 5598 5603 5608 5613 5617 5620 5635 5646 5646 5651 5654 5658 5660 5660 5661 5657 5663 5666 5664 5656 5672 5685 5684 5688 5684 5690 5697 5694 5692 5701 5703 5706 5705 5706
5552 5553 5559 5564 5569 5570 5571 5576 5580 5583 5585 5589 5594 5598 5603 5608 5601 5636 5643 5647 5647 5647 5650 5651 5649 5643 5644 5645 5659 5652 5665 5673 5682 5679 5680 5678 5686 5687 5692 5696 5703 5705 5708 5702 5701
5540 5543 5549 5553 5560 5562 5564 5565 5571 5574 5577 5580 5584 5588 5592 5597 5612 5626 5640 5638 5635 5637 5636 5635 5633 5635 5632 5640 5647 5643 5655 5665 5672 5674 5673 5678 5676 5675 5686 5697 5700 5701 5703 5701 5702
5529 5533 5538 5544 5548 5551 5556 5555 5560 5564 5567 5569 5573 5577 5583 5590 5612 5611 5619 5623 5624 5624 5625 5627 5628 5632 5630 5633 5635 5642 5645 5652 5661 5665 5666 5667 5670 5675 5688 5694 5693 5697 5698 5698 5702
5517 5522 5529 5531 5536 5541 5547 5545 5550 5551 5556 5558 5561 5565 5575 5588 5599 5602 5606 5611 5614 5616 5613 5619 5622 5621 5624 5626 5630 5633 5630 5636 5646 5656 5656 5661 5656 5666 5685 5685 5685 5685 5691 5697 5700
5507 5512 5519 5520 5522 5529 5534 5537 5537 5540 5543 5545 5549 5555 5567 5583 5586 5589 5593 5595 5601 5604 5607 5609 5612 5609 5612 5613 5612 5615 5617 5612 5633 5642 5651 5651 5649 5671 5677 5674 5679 5682 5681 5688 5699
5495 5500 5508 5509 5512 5515 5520 5526 5525 5525 5526 5530 5537 5543 5556 5572 5573 5579 5581 5581 5581 5587 5594 5597 5599 5600 5600 5600 5597 5599 5598 5598 5613 5631 5631 5633 5643 5662 5667 5663 5671 5676 5679 5683 5689
5479 5486 5493 5497 5499 5504 5510 5509 5510 5505 5506 5515 5525 5529 5544 5556 5564 5567 5573 5574 5570 5570 5577 5582 5583 5587 5587 5590 5590 5594 5589 5593 5595 5612 5613 5612 5635 5640 5649 5652 5662 5671 5678 5683 5682
5466 5473 5477 5483 5490 5494 5492 5487 5485 5485 5501 5516 5528 5539 5552 5553 5560 5559 5565 5559 5558 5555 5559 5561 5567 5581 5586 5581 5587 5586 5586 5588 5595 5599 5601 5601 5621 5627 5633 5642 5647 5662 5668 5675 5682
5452 5461 5468 5473 5478 5479 5477 5485 5501 5509 5499 5505 5513 5520 5531 5538 5537 5544 5551 5541 5543 5548 5546 5545 5565 5568 5574 5572 5573 5576 5577 5586 5581 5586 5587 5587 5608 5627 5626 5635 5648 5655 5664 5672 5677
5438 5450 5458 5464 5467 5458 5470 5487 5490 5502 5485 5490 5493 5500 5512 5523 5530 5535 5542 5538 5537 5537 5541 5544 5562 5563 5561 5558 5558 5562 5569 5574 5566 5572 5575 5569 5587 5616 5634 5631 5642 5654 5660 5667 5671
5423 5437 5446 5452 5438 5451 5465 5471 5474 5484 5470 5471 5477 5492 5495 5507 5517 5530 5534 5532 5523 5530 5527 5529 5547 5549 5544 5548 5549 5547 5562 5559 5553 5549 5552 5559 5559 5600 5616 5624 5635 5652 5655 5662 5671
5408 5426 5434 5436 5439 5450 5469 5461 5464 5463 5453 5469 5476 5491 5495 5501 5519 5521 5524 5513 5513 5520 5518 5538 5536 5534 5536 5554 5540 5551 5551 5546 5543 5536 5535 5549 5538 5581 5602 5612 5630 5644 5644 5655 5659
5400 5417 5423 5421 5429 5448 5454 5453 5448 5439 5448 5456 5478 5479 5479 5499 5505 5501 5504 5504 5506 5504 5508 5524 5527 5526 5540 5537 5534 5538 5535 5531 5528 5521 5525 5560 5534 5561 5592 5615 5631 5637 5640 5647 5650
5410 5413 5411 5413 5426 5436 5439 5434 5433 5451 5437 5451 5475 5483 5490 5492 5490 5493 5499 5497 5504 5496 5501 5510 5513 5524 5533 5521 5519 5525 5520 5506 5493 5514 5526 5546 5529 5557 5599 5610 5614 5626 5631 5635 5630
5402 5403 5403 5407 5414 5423 5425 5416 5430 5441 5440 5454 5477 5483 5482 5488 5484 5489 5490 5495 5498 5498 5504 5506 5505 5513 5525 5525 5519 5516 5519 5512 5495 5506 5523 5524 5521 5553 5587 5609 5614 5619 5610 5609 5619
5386 5392 5396 5397 5403 5411 5410 5414 5431 5439 5441 5462 5473 5469 5473 5482 5491 5486 5489 5497 5503 5500 5499 5489 5496 5521 5523 5520 5522 5510 5506 5529 5495 5480 5483 5511 5529 5555 5586 5599 5612 5593 5597 5599 5605
5381 5386 5392 5394 5398 5401 5398 5416 5414 5438 5451 5458 5469 5474 5465 5476 5482 5481 5480 5497 5494 5501 5498 5496 5493 5513 5515 5513 5517 5518 5516 5495 5470 5476 5484 5505 5510 5534 5571 5577 5575 5567 5576 5583 5590
5371 5379 5386 5391 5391 5395 5401 5405 5397 5438 5451 5458 5455 5466 5467 5475 5478 5483 5488 5495 5505 5498 5493 5493 5496 5502 5498 5508 5519 5505 5506 5507 5497 5475 5462 5481 5512 5562 5575 5566 5561 5559 5562 5568 5571
5361 5369 5384 5384 5383 5384 5400 5394 5413 5428 5437 5445 5453 5462 5469 5481 5477 5483 5482 5509 5509 5501 5488 5491 5482 5476 5491 5509 5511 5512 5513 5506 5494 5477 5476 5494 5516 5566 5561 5552 5548 5550 5555 5556 5556
5364 5371 5377 5383 5385 5391 5389 5391 5407 5414 5429 5431 5443 5457 5474 5480 5467 5477 5487 5491 5498 5496 5499 5496 5475 5425 5463 5486 5496 5497 5508 5507 5501 5479 5496 5485 5522 5545 5541 5537 5538 5540 5544 5543 5537
5358 5368 5371 5373 5374 5392 5395 5390 5388 5406 5417 5430 5435 5452 5467 5464 5480 5477 5475 5486 5488 5493 5496 5499 5476 5487 5490 5502 5498 5492 5495 5500 5497 5473 5501 5492 5514 5549 5526 5521 5521 5522 5525 5514 5506
5358 5359 5375 5378 5377 5384 5391 5395 5399 5394 5414 5418 5420 5433 5452 5456 5467 5461 5472 5479 5484 5491 5485 5486 5461 5473 5484 5487 5492 5494 5488 5484 5486 5502 5480 5504 5501 5543 5509 5505 5504 5493 5491 5491 5489
5358 5362 5368 5367 5383 5380 5385 5382 5391 5389 5411 5413 5419 5442 5457 5459 5480 5480 5486 5491 5493 5484 5487 5477 5446 5463 5449 5472 5471 5473 5475 5475 5473 5475 5471 5476 5503 5502 5472 5467 5464 5462 5464 5463 5464
5365 5373 5380 5385 5378 5376 5386 5380 5404 5408 5411 5424 5441 5443 5445 5479 5486 5489 5490 5497 5498 5502 5496 5472 5452 5428 5432 5453 5457 5450 5471 5467 5470 5476 5482 5480 5508 5469 5453 5452 5445 5438 5437 5437 5440